This demonstration page uses our WeatherBlox Daily Observations layout. Learn more.

Left ArrowRight Arrow

39.01783, -85.05884

Hourly Observations for September 30, 2020

Temp ( °F °C ) Dew Point ( °F °C ) Humidity (%) Winds ( mph kmh ) Pressure ( in mb ) Visibility ( mi km ) Precip ( " mm )
12:52 am 00:52 Partly Cloudy 50 10 45 7.2 83 83 W 8 13 29.85 1011 10 16 0.00 0.00
1:52 am 01:52 Mostly Clear 49 9.4 43 6.1 80 80 W 8 13 29.83 1010 10 16 0.00 0.00
2:52 am 02:52 Mostly Clear 46 7.8 43 6.1 89 89 SW 5 7 29.83 1010 10 16 0.00 0.00
3:52 am 03:52 Mostly Cloudy 47 8.3 43 6.1 86 86 SSW 7 11 29.82 1010 10 16 0.00 0.00
4:52 am 04:52 Mostly Clear 47 8.3 43 6.1 86 86 SSW 7 11 29.82 1010 10 16 0.00 0.00
5:52 am 05:52 Clear 47 8.3 43 6.1 86 86 SSW 9 15 29.83 1010 10 16 0.00 0.00
6:52 am 06:52 Clear 47 8.3 44 6.7 90 90 S 9 15 29.82 1010 10 16 0.00 0.00
7:52 am 07:52 Mostly Sunny 48 8.9 44 6.7 86 86 SSW 12 19 29.81 1009 10 16 0.00 0.00
8:52 am 08:52 Sunny 50 10 45 7.2 83 83 SSW 13 20 29.81 1009 10 16 0.00 0.00
9:52 am 09:52 Mostly Sunny 54 12.2 46 7.8 75 75 SSW 17 28 29.79 1009 10 16 0.00 0.00
10:52 am 10:52 Mostly Sunny 59 15 47 8.3 64 64 SSW 17 28 29.78 1009 10 16 0.00 0.00
11:52 am 11:52 Mostly Sunny 64 17.8 47 8.3 54 54 SW 22 35 29.79 1009 10 16 0.00 0.00
12:52 pm 12:52 Partly Cloudy 67 19.4 47 8.3 49 49 WSW 21 33 29.79 1009 10 16 0.00 0.00
1:52 pm 13:52 Partly Cloudy 70 21.1 47 8.3 44 44 SW 14 22 29.78 1009 10 16 0.00 0.00
2:52 pm 14:52 Partly Cloudy 72 22.2 48 8.9 43 43 S 17 28 29.73 1007 10 16 0.00 0.00
3:52 pm 15:52 Partly Cloudy 72 22.2 47 8.3 41 41 SSW 17 28 29.70 1006 10 16 0.00 0.00
4:52 pm 16:52 Mostly Cloudy 73 22.8 47 8.3 40 40 SW 20 31 29.71 1006 10 16 0.00 0.00
5:52 pm 17:52 Partly Cloudy 74 23.3 48 8.9 40 40 SW 12 19 29.72 1007 10 16 0.00 0.00
6:52 pm 18:52 Mostly Cloudy 71 21.7 49 9.4 46 46 W 6 9 29.75 1008 10 16 0.00 0.00
7:52 pm 19:52 Mostly Cloudy 68 20 45 7.2 44 44 WNW 9 15 29.80 1009 10 16 0.00 0.00
8:52 pm 20:52 Cloudy 67 19.4 43 6.1 42 42 NW 17 28 29.84 1011 10 16 0.00 0.00
9:52 pm 21:52 Mostly Cloudy 64 17.8 40 4.4 41 41 NW 21 33 29.87 1012 10 16 0.00 0.00
10:52 pm 22:52 Mostly Clear 60 15.6 40 4.4 47 47 NW 14 22 29.91 1013 10 16 0.00 0.00
11:52 pm 23:52 Mostly Clear 57 13.9 40 4.4 53 53 NW 8 13 29.93 1014 10 16 0.00 0.00

Powered by AerisWeather